Location: Newark
(41.6500°N, 71.4833°W)
Time: 07:23:43
(UTC+00:00)

deb Explorer IX - Pass Details

Date: 01 February 2020
Orbit: 549 x 1099 km, 38.8° (Epoch: 20 February)

Event Time Altitude Azimuth Distance (km) Brightness Sun altitude
Rises 23:57:48 0° 236° (SW) 3,364 ? -22.2°
Reaches altitude 10° 00:00:15 10° 230° (SW) 2,515 ? -22.6°
Maximum altitude 00:06:03 47° 158° (SSE) 1,251 ? -23.7°
Enters shadow 00:07:19 42° 127° (SE) 1,361 ? -24.0°
Drops below altitude 10° 00:12:39 10° 87° (E) 2,852 - -25.0°
Sets 00:15:35 0° 82° (E) 3,855 - -25.5°
